sat.trackr.live / text

‹ back to catalog

STARLINK-35464

NORAD 65881 · 2025-223AD

PAYLOAD ACTIVE UNKNOWN

§ Identity

Operator
Country
US
Launch date
2025-10-03
Launch site
AFWTR
Launch vehicle
Mass (kg)
RCS (m²)

Purposes: comms

External: N2YO · Heavens-Above · Gunter

§ Orbital elements

Epoch: 2026-05-25T03:02:41.687232Z

Period
93.85 min
Inclination
53.1606°
Eccentricity
0.0001459
Mean motion
15.34408012 rev/d
Perigee alt
461.7 km
Apogee alt
463.7 km
Semi-major
6,840.8 km
B*
7.9120e-4
RAAN
298.7595°
Arg perigee
63.4156°
Mean anomaly
296.6996°
Rev number
3,591

§ Raw data

STARLINK-354641 65881U 25223AD  26145.12687138  .00026457  00000+0  79120-3 0  99912 65881  53.1606 298.7595 0001459  63.4156 296.6996 15.34408012 35913

JSON: /api/v1/satellites/65881 · /tle

For live sub-satellite position, see the globe view (requires WebGL).

§ Visibility from observer

Set your observer location to see the next 7 days of passes ≥ 10°. The values pass through the URL so the page stays shareable.

No JS? Fill the form by hand. The geolocation button needs JavaScript.